Preview of NWS' New Version of Forecast
This preview is not operational and should not be used for support decisions.

Regional Weather Roundup (RWR)

Issued by Columbia, SC (CAE)

                            
000
ASUS42 KCAE 200910
RWRCAE
REGIONAL WEATHER ROUNDUP
NATIONAL WEATHER SERVICE COLUMBIA SC
400 AM EST WED FEB 20 2019

NOTE: "FAIR" INDICATES FEW OR NO CLOUDS BELOW 12,000 FEET WITH NO
SIGNIFICANT WEATHER AND/OR OBSTRUCTIONS TO VISIBILITY.

NOT ALL STATIONS ARE QUALITY CONTROLLED BY THE NATIONAL 
WEATHER SERVICE. USE DATA WITH CAUTION...ESPECIALLY 
DEWPOINT OBSERVATIONS.

SCZ001>056-GAZ040-063>065-077-201000-
...UPSTATE SOUTH CAROLINA...
  
CITY           SKY/WX    TMP DP  RH WIND       PRES   REMARKS
ANDERSON       LGT RAIN  37  35  92 NE10      30.33F WCI  30          
LIBERTY        RAIN      35  35 100 NE10      30.33F WCI  27          
SPARTANBURG    RAIN      36  34  93 NE8       30.35F WCI  29          
CLEMSON        LGT RAIN  35  35 100 NE9       30.34F FOG     WCI  28  
GREENVILLE     LGT RAIN  37  35  92 NE14      30.34F WCI  28          
GREENWOOD      CLOUDY    37  37 100 N9        30.34F FOG     WCI  30  
GREER          LGT RAIN  36  33  89 NE10      30.34F WCI  28          
ROCK HILL      CLOUDY    37  36  96 VRB5      30.36F FOG     WCI  33  
CHESTER        CLOUDY    36  36 100 NE8       30.35F FOG     WCI  29  
LAURENS        CLOUDY    36  36 100 NE9G16    30.32F FOG     WCI  29  


...CENTRAL SOUTH CAROLINA...
  
CITY           SKY/WX    TMP DP  RH WIND       PRES   REMARKS
COLUMBIA APT   CLOUDY    42  39  89 NE8       30.32F                  
COLUMBIA OWENS CLOUDY    42  36  79 E7        30.33F                  
MCENTIRE ANGB  CLOUDY    41  37  87 NE6       30.32F                  
ORANGEBURG     CLOUDY    44  36  73 E7        30.29F                  
SUMTER SHAW    CLOUDY    41  36  81 NE10      30.32F                  
NEWBERRY       CLOUDY    37  37 100 NE8       30.37S WCI  31          
AIKEN          CLOUDY    39  37  93 NE10      30.30F WCI  32          
BARNWELL       CLOUDY    45  37  76 NE8       30.27F                  
MANNING        DRIZZLE   39  37  93 E6        30.31F WCI  35          
CAMDEN         CLOUDY    39  37  93 NE6       30.35F WCI  35          
LANCASTER      CLOUDY    37  37 100 NE7       30.36F WCI  32          
WINNSBORO      CLOUDY    37  37 100 NE8       30.32F WCI  31          


...EASTERN AND COASTAL SOUTH CAROLINA...
  
CITY           SKY/WX    TMP DP  RH WIND       PRES   REMARKS
MYRTLE BEACH   CLOUDY    43  34  70 NE12G18   30.35F                  
N MYRTLE BCH   CLOUDY    41  33  73 NE13      30.34F                  
CONWAY         LGT RAIN  37  34  87 NE8       30.35F WCI  31          
MARION         CLOUDY    37  34  87 E7        30.36F WCI  32          
HARTSVILLE     CLOUDY    36  36 100 NE8       30.34F WCI  29          
FLORENCE       CLOUDY    39  37  92 E9        30.37S WCI  33          
DARLINGTON     CLOUDY    38  37  97 E8        30.38R WCI  32          
CHARLESTON APT RAIN      47  43  86 E13       30.28F FOG              
MOUNT PLEASANT RAIN      48  46  93 NE7G16    30.29F                  
WALTERBORO     DRIZZLE   43  41  93 CALM      30.28F                  
BEAUFORT       LGT RAIN  50  48  93 NE12G18   30.24F                  
HILTON HEAD    DRIZZLE   52  50  93 NE12G20   30.24F                  


...EASTERN GEORGIA...
  
CITY           SKY/WX    TMP DP  RH WIND       PRES   REMARKS
AUGUSTA BUSH F CLOUDY    46  37  71 NE6       30.29F                  
AUGUSTA DANIEL CLOUDY    45  35  68 NE9       30.28F                  
THOMSON        CLOUDY    41  37  86 SE6       30.33F                  
CLAXTON        DRIZZLE   47  45  92 NE8       30.23F                  
SYLVANIA       CLOUDY    45  43  93 E8        30.26F                  
STATESBORO     CLOUDY    45  43  93 E6        30.24F                  
SAVANNAH       CLOUDY    48  47  96 NE7       30.23F FOG              


...SOUTHERN NORTH CAROLINA...
  
CITY           SKY/WX    TMP DP  RH WIND       PRES   REMARKS
CHARLOTTE      LGT RAIN  37  34  89 NE8       30.38F FOG     WCI  31  
MONROE         CLOUDY    36  33  89 NE9       30.36F WCI  29          
WADESBORO      CLOUDY    38  35  89 N5        30.37F WCI  34          
ROCKINGHAM     CLOUDY    37  37 100 NE7       30.37S WCI  31          
RUTHERFORDTON  DRIZZLE   34  34 100 N7        30.38F WCI  28          
ASHEVILLE      SLEET     33  31  92 S8        30.31F FOG     WCI  26  

$$